| time (UTC) | temp F | wind direction | speed MPH | gust MPH | rain 1hr in | rain 24hr in | rain mn in | humidity % | barometer mb |
| 20260510091520 | 64 | 296 | 5.0 | 9.0 | 0.00 | 0.00 | 0.00 | 52 | 1014.6 |
| 20260510091017 | 64 | 295 | 5.0 | 8.0 | 0.00 | 0.00 | 0.00 | 52 | 1014.7 |
| 20260510090515 | 64 | 295 | 4.0 | 8.0 | 0.00 | 0.00 | 0.00 | 50 | 1014.7 |
| 20260510090016 | 63 | 289 | 2.0 | 6.0 | 0.00 | 0.00 | 0.00 | 54 | 1014.8 |
| 20260510085514 | 63 | 325 | 2.0 | 6.0 | 0.00 | 0.00 | 0.00 | 56 | 1014.8 |
| 20260510085012 | 63 | 309 | 0.0 | 6.0 | 0.00 | 0.00 | 0.00 | 57 | 1014.9 |
| 20260510084514 | 63 | 304 | 1.0 | 4.0 | 0.00 | 0.00 | 0.00 | 56 | 1015.0 |
| 20260510084009 | 62 | 278 | 0.0 | 3.0 | 0.00 | 0.00 | 0.00 | 58 | 1015.1 |
| 20260510083511 | 62 | 278 | 0.0 | 3.0 | 0.00 | 0.00 | 0.00 | 59 | 1015.2 |
| 20260510083008 | 61 | 337 | 0.0 | 2.0 | 0.00 | 0.00 | 0.00 | 60 | 1015.2 |
| 20260510082505 | 61 | 337 | 0.0 | 2.0 | 0.00 | 0.00 | 0.00 | 58 | 1015.3 |
| 20260510082004 | 61 | 359 | 0.0 | 0.0 | 0.00 | 0.00 | 0.00 | 60 | 1015.3 |
| 20260510081504 | 61 | 359 | 0.0 | 2.0 | 0.00 | 0.00 | 0.00 | 58 | 1015.3 |
| 20260510081004 | 61 | 21 | 0.0 | 2.0 | 0.00 | 0.00 | 0.00 | 60 | 1015.4 |
| 20260510080505 | 61 | 134 | 0.0 | 2.0 | 0.00 | 0.00 | 0.00 | 61 | 1015.4 |
| 20260510080002 | 60 | 134 | 0.0 | 0.0 | 0.00 | 0.00 | 0.00 | 60 | 1015.5 |
| 20260510075601 | 60 | 134 | 0.0 | 0.0 | 0.00 | 0.00 | 0.00 | 59 | 1015.6 |
| 20260510075100 | 59 | 134 | 0.0 | 4.0 | 0.00 | 0.00 | 0.00 | 60 | 1015.6 |
| 20260510074600 | 59 | 134 | 1.0 | 4.0 | 0.00 | 0.00 | 0.00 | 58 | 1015.6 |
| 20260510074101 | 59 | 32 | 0.0 | 3.0 | 0.00 | 0.00 | 0.00 | 63 | 1015.7 |
| 20260510073557 | 59 | 331 | 0.0 | 2.0 | 0.00 | 0.00 | 0.00 | 63 | 1015.7 |
| 20260510073114 | 58 | 120 | 0.0 | 2.0 | 0.00 | 0.00 | 0.00 | 66 | 1015.8 |
| 20260510072554 | 58 | 119 | 0.0 | 0.0 | 0.00 | 0.00 | 0.00 | 67 | 1015.9 |
| 20260510072053 | 58 | 360 | 0.0 | 2.0 | 0.00 | 0.00 | 0.00 | 66 | 1015.9 |
| 20260510071552 | 57 | 360 | 0.0 | 3.0 | 0.00 | 0.00 | 0.00 | 66 | 1016.0 |
| 20260510071050 | 57 | 20 | 0.0 | 3.0 | 0.00 | 0.00 | 0.00 | 69 | 1016.1 |
| 20260510070549 | 56 | 149 | 0.0 | 3.0 | 0.00 | 0.00 | 0.00 | 66 | 1016.2 |
| 20260510070053 | 56 | 149 | 0.0 | 3.0 | 0.00 | 0.00 | 0.00 | 69 | 1016.2 |
| 20260510065546 | 56 | 149 | 0.0 | 2.0 | 0.00 | 0.00 | 0.00 | 68 | 1016.3 |
| 20260510065045 | 56 | 149 | 0.0 | 2.0 | 0.00 | 0.00 | 0.00 | 71 | 1016.2 |
| 20260510064559 | 55 | 149 | 0.0 | 1.0 | 0.00 | 0.00 | 0.00 | 72 | 1016.3 |
| 20260510064040 | 54 | 149 | 0.0 | 1.0 | 0.00 | 0.00 | 0.00 | 71 | 1016.4 |
| 20260510063539 | 54 | 149 | 0.0 | 2.0 | 0.00 | 0.00 | 0.00 | 72 | 1016.5 |
| 20260510063038 | 54 | 149 | 0.0 | 2.0 | 0.00 | 0.00 | 0.00 | 72 | 1016.6 |
| 20260510062536 | 53 | 149 | 0.0 | 1.0 | 0.00 | 0.00 | 0.00 | 71 | 1016.7 |
| 20260510062036 | 53 | 151 | 0.0 | 0.0 | 0.00 | 0.00 | 0.00 | 72 | 1016.7 |
| 20260510061534 | 53 | 151 | 0.0 | 2.0 | 0.00 | 0.00 | 0.00 | 72 | 1016.9 |
| 20260510061033 | 53 | 151 | 0.0 | 2.0 | 0.00 | 0.00 | 0.00 | 75 | 1017.0 |
| 20260510060537 | 53 | 151 | 0.0 | 2.0 | 0.00 | 0.00 | 0.00 | 75 | 1017.1 |
| 20260510060033 | 52 | 151 | 0.0 | 0.0 | 0.00 | 0.00 | 0.00 | 75 | 1017.2 |
| 20260510055530 | 52 | 151 | 0.0 | 0.0 | 0.00 | 0.00 | 0.00 | 75 | 1017.1 |
| 20260510055031 | 51 | 151 | 0.0 | 3.0 | 0.00 | 0.00 | 0.00 | 77 | 1017.2 |
| 20260510054528 | 51 | 151 | 0.0 | 3.0 | 0.00 | 0.00 | 0.00 | 77 | 1017.4 |
| 20260510054025 | 50 | 151 | 0.0 | 3.0 | 0.00 | 0.00 | 0.00 | 78 | 1017.5 |
| 20260510053527 | 50 | 176 | 1.0 | 3.0 | 0.00 | 0.00 | 0.00 | 77 | 1017.5 |
| 20260510053038 | 50 | 176 | 0.0 | 3.0 | 0.00 | 0.00 | 0.00 | 76 | 1017.5 |
| 20260510052523 | 50 | 176 | 0.0 | 0.0 | 0.00 | 0.00 | 0.00 | 79 | 1017.5 |
| 20260510052021 | 49 | 176 | 0.0 | 0.0 | 0.00 | 0.00 | 0.00 | 81 | 1017.5 |
| 20260510051526 | 48 | 176 | 0.0 | 0.0 | 0.00 | 0.00 | 0.00 | 81 | 1017.4 |
| 20260510051024 | 48 | 176 | 0.0 | 0.0 | 0.00 | 0.00 | 0.00 | 82 | 1017.4 |
| 20260510050518 | 47 | 176 | 0.0 | 0.0 | 0.00 | 0.00 | 0.00 | 84 | 1017.4 |
| 20260510050017 | 47 | 176 | 0.0 | 0.0 | 0.00 | 0.00 | 0.00 | 84 | 1017.4 |
| 20260510045516 | 46 | 176 | 0.0 | 0.0 | 0.00 | 0.00 | 0.00 | 86 | 1017.4 |
| 20260510045015 | 46 | 176 | 0.0 | 0.0 | 0.00 | 0.00 | 0.00 | 86 | 1017.5 |
| 20260510044513 | 45 | 176 | 0.0 | 0.0 | 0.00 | 0.00 | 0.00 | 86 | 1017.6 |
| 20260510044011 | 45 | 176 | 0.0 | 0.0 | 0.00 | 0.00 | 0.00 | 86 | 1017.6 |
| 20260510043510 | 45 | 176 | 0.0 | 0.0 | 0.00 | 0.00 | 0.00 | 88 | 1017.6 |
| 20260510043010 | 44 | 176 | 0.0 | 0.0 | 0.00 | 0.00 | 0.00 | 88 | 1017.7 |
| 20260510042509 | 44 | 176 | 0.0 | 0.0 | 0.00 | 0.00 | 0.00 | 87 | 1017.8 |
| 20260510042007 | 44 | 175 | 0.0 | 2.0 | 0.00 | 0.00 | 0.00 | 87 | 1017.9 |
| 20260510041506 | 44 | 309 | 0.0 | 2.0 | 0.00 | 0.00 | 0.00 | 87 | 1018.0 |
| 20260510041006 | 44 | 309 | 0.0 | 0.0 | 0.00 | 0.00 | 0.00 | 87 | 1018.0 |
| 20260510040505 | 44 | 309 | 0.0 | 0.0 | 0.00 | 0.00 | 0.00 | 86 | 1018.0 |
| 20260510040005 | 44 | 309 | 0.0 | 0.0 | 0.00 | 0.00 | 0.00 | 86 | 1018.0 |
| 20260510035503 | 44 | 309 | 0.0 | 0.0 | 0.00 | 0.00 | 0.00 | 86 | 1018.1 |
| 20260510035002 | 45 | 309 | 0.0 | 0.0 | 0.00 | 0.00 | 0.00 | 86 | 1018.1 |
| 20260510034502 | 45 | 309 | 0.0 | 0.0 | 0.00 | 0.00 | 0.00 | 85 | 1018.2 |
| 20260510034001 | 45 | 309 | 0.0 | 0.0 | 0.00 | 0.00 | 0.00 | 85 | 1018.1 |
| 20260510033500 | 45 | 176 | 0.0 | 0.0 | 0.00 | 0.00 | 0.00 | 85 | 1018.1 |
| 20260510033106 | 45 | 176 | 0.0 | 0.0 | 0.00 | 0.00 | 0.00 | 85 | 1018.1 |
| 20260510032559 | 45 | 176 | 0.0 | 0.0 | 0.00 | 0.00 | 0.00 | 85 | 1018.3 |
| 20260510032059 | 45 | 176 | 0.0 | 0.0 | 0.00 | 0.00 | 0.00 | 85 | 1018.3 |
| 20260510031600 | 45 | 176 | 0.0 | 0.0 | 0.00 | 0.00 | 0.00 | 84 | 1018.3 |
| 20260510031057 | 45 | 176 | 0.0 | 0.0 | 0.00 | 0.00 | 0.00 | 84 | 1018.3 |
| 20260510030559 | 46 | 176 | 0.0 | 0.0 | 0.00 | 0.00 | 0.00 | 84 | 1018.3 |
| 20260510030109 | 46 | 176 | 0.0 | 0.0 | 0.00 | 0.00 | 0.00 | 84 | 1018.3 |
| 20260510025556 | 46 | 176 | 0.0 | 0.0 | 0.00 | 0.00 | 0.00 | 84 | 1018.3 |
| 20260510025056 | 46 | 176 | 0.0 | 0.0 | 0.00 | 0.00 | 0.00 | 83 | 1018.3 |
| 20260510024559 | 46 | 176 | 0.0 | 2.0 | 0.00 | 0.00 | 0.00 | 83 | 1018.3 |
| 20260510024054 | 46 | 176 | 0.0 | 2.0 | 0.00 | 0.00 | 0.00 | 84 | 1018.3 |
| 20260510023554 | 46 | 176 | 0.0 | 2.0 | 0.00 | 0.00 | 0.00 | 84 | 1018.4 |
| 20260510023054 | 46 | 176 | 0.0 | 0.0 | 0.00 | 0.00 | 0.00 | 84 | 1018.5 |
| 20260510022558 | 46 | 176 | 0.0 | 0.0 | 0.00 | 0.00 | 0.00 | 84 | 1018.5 |
| 20260510022053 | 46 | 176 | 0.0 | 0.0 | 0.00 | 0.00 | 0.00 | 83 | 1018.5 |
| 20260510021601 | 46 | 176 | 0.0 | 0.0 | 0.00 | 0.00 | 0.00 | 82 | 1018.4 |
| 20260510021051 | 47 | 176 | 0.0 | 0.0 | 0.00 | 0.00 | 0.00 | 82 | 1018.4 |
| 20260510020551 | 47 | 176 | 0.0 | 0.0 | 0.00 | 0.00 | 0.00 | 81 | 1018.5 |
| 20260510020051 | 47 | 176 | 0.0 | 0.0 | 0.00 | 0.00 | 0.00 | 81 | 1018.5 |
| 20260510015550 | 47 | 176 | 0.0 | 2.0 | 0.00 | 0.00 | 0.00 | 82 | 1018.5 |
| 20260510015050 | 46 | 176 | 1.0 | 2.0 | 0.00 | 0.00 | 0.00 | 82 | 1018.5 |
| 20260510014553 | 47 | 176 | 0.0 | 0.0 | 0.00 | 0.00 | 0.00 | 81 | 1018.5 |
| 20260510014048 | 47 | 176 | 0.0 | 0.0 | 0.00 | 0.00 | 0.00 | 81 | 1018.5 |
| 20260510013552 | 47 | 176 | 0.0 | 0.0 | 0.00 | 0.00 | 0.00 | 80 | 1018.5 |
| 20260510013048 | 48 | 176 | 0.0 | 0.0 | 0.00 | 0.00 | 0.00 | 80 | 1018.5 |
| 20260510012545 | 48 | 309 | 0.0 | 0.0 | 0.00 | 0.00 | 0.00 | 79 | 1018.5 |
| 20260510012045 | 48 | 176 | 0.0 | 0.0 | 0.00 | 0.00 | 0.00 | 79 | 1018.4 |
| 20260510011544 | 48 | 309 | 0.0 | 0.0 | 0.00 | 0.00 | 0.00 | 79 | 1018.5 |
| 20260510011044 | 48 | 175 | 0.0 | 0.0 | 0.00 | 0.00 | 0.00 | 79 | 1018.5 |
| 20260510010543 | 48 | 309 | 0.0 | 0.0 | 0.00 | 0.00 | 0.00 | 79 | 1018.5 |
| 20260510010046 | 48 | 309 | 0.0 | 0.0 | 0.00 | 0.00 | 0.00 | 79 | 1018.6 |
| 20260510005542 | 48 | 309 | 0.0 | 0.0 | 0.00 | 0.00 | 0.00 | 78 | 1018.6 |
| 20260510005041 | 48 | 309 | 0.0 | 0.0 | 0.00 | 0.00 | 0.00 | 78 | 1018.7 |
| 20260510004541 | 48 | 309 | 0.0 | 3.0 | 0.00 | 0.00 | 0.00 | 78 | 1018.7 |
| 20260510004040 | 48 | 309 | 1.0 | 3.0 | 0.00 | 0.00 | 0.00 | 78 | 1018.8 |
| 20260510003540 | 49 | 309 | 0.0 | 2.0 | 0.00 | 0.00 | 0.00 | 77 | 1018.7 |
| 20260510003048 | 49 | 309 | 0.0 | 3.0 | 0.00 | 0.00 | 0.00 | 77 | 1018.8 |
| 20260510002537 | 49 | 309 | 2.0 | 3.0 | 0.00 | 0.00 | 0.00 | 77 | 1018.8 |
| 20260510002036 | 49 | 309 | 0.0 | 3.0 | 0.00 | 0.00 | 0.00 | 76 | 1018.9 |
| 20260510001535 | 50 | 309 | 0.0 | 3.0 | 0.00 | 0.00 | 0.00 | 76 | 1019.0 |
| 20260510001035 | 50 | 309 | 0.0 | 0.0 | 0.00 | 0.00 | 0.00 | 75 | 1019.1 |
| 20260510000534 | 50 | 309 | 0.0 | 0.0 | 0.00 | 0.00 | 0.00 | 76 | 1019.2 |
| 20260510000034 | 50 | 309 | 0.0 | 0.0 | 0.00 | 0.00 | 0.00 | 75 | 1019.2 |
| 20260509235534 | 50 | 309 | 0.0 | 0.0 | 0.00 | 0.00 | 0.00 | 75 | 1019.3 |
| 20260509235032 | 50 | 309 | 0.0 | 0.0 | 0.00 | 0.00 | 0.00 | 75 | 1019.3 |
| 20260509234532 | 50 | 309 | 0.0 | 0.0 | 0.00 | 0.00 | 0.00 | 75 | 1019.4 |
| 20260509234030 | 50 | 309 | 0.0 | 0.0 | 0.00 | 0.00 | 0.00 | 74 | 1019.5 |
| 20260509233529 | 50 | 309 | 0.0 | 0.0 | 0.00 | 0.00 | 0.00 | 73 | 1019.5 |
| 20260509233029 | 51 | 176 | 0.0 | 0.0 | 0.00 | 0.00 | 0.00 | 73 | 1019.5 |
| 20260509232528 | 51 | 176 | 0.0 | 0.0 | 0.00 | 0.00 | 0.00 | 73 | 1019.5 |
| 20260509232029 | 51 | 176 | 0.0 | 0.0 | 0.00 | 0.00 | 0.00 | 73 | 1019.6 |
| 20260509231528 | 51 | 176 | 0.0 | 0.0 | 0.00 | 0.00 | 0.00 | 73 | 1019.6 |
| 20260509231130 | 51 | 176 | 0.0 | 0.0 | 0.00 | 0.00 | 0.00 | 73 | 1019.5 |
| 20260509230526 | 51 | 176 | 0.0 | 0.0 | 0.00 | 0.00 | 0.00 | 72 | 1019.5 |
| 20260509230026 | 52 | 176 | 0.0 | 0.0 | 0.00 | 0.00 | 0.00 | 72 | 1019.5 |
| 20260509225524 | 52 | 176 | 0.0 | 0.0 | 0.00 | 0.00 | 0.00 | 71 | 1019.5 |
| 20260509225023 | 52 | 176 | 0.0 | 0.0 | 0.00 | 0.00 | 0.00 | 70 | 1019.5 |
| 20260509224523 | 52 | 176 | 0.0 | 0.0 | 0.00 | 0.00 | 0.00 | 70 | 1019.5 |
| 20260509224022 | 52 | 176 | 0.0 | 0.0 | 0.00 | 0.00 | 0.00 | 70 | 1019.6 |
| 20260509223523 | 52 | 176 | 0.0 | 0.0 | 0.00 | 0.00 | 0.00 | 70 | 1019.6 |
| 20260509223022 | 53 | 176 | 0.0 | 3.0 | 0.00 | 0.00 | 0.00 | 69 | 1019.6 |
| 20260509222520 | 53 | 176 | 1.0 | 3.0 | 0.00 | 0.00 | 0.00 | 69 | 1019.7 |
| 20260509222020 | 53 | 157 | 0.0 | 2.0 | 0.00 | 0.00 | 0.00 | 69 | 1019.7 |
| 20260509221521 | 53 | 157 | 0.0 | 0.0 | 0.00 | 0.00 | 0.00 | 69 | 1019.7 |
| 20260509221019 | 53 | 157 | 0.0 | 0.0 | 0.00 | 0.00 | 0.00 | 68 | 1019.6 |
| 20260509220518 | 54 | 157 | 0.0 | 3.0 | 0.00 | 0.00 | 0.00 | 68 | 1019.6 |
| 20260509220025 | 54 | 157 | 0.0 | 3.0 | 0.00 | 0.00 | 0.00 | 67 | 1019.7 |
| 20260509215518 | 54 | 157 | 0.0 | 3.0 | 0.00 | 0.00 | 0.00 | 66 | 1019.7 |
| 20260509215016 | 54 | 283 | 1.0 | 4.0 | 0.00 | 0.00 | 0.00 | 66 | 1019.6 |
| 20260509214516 | 54 | 255 | 0.0 | 4.0 | 0.00 | 0.00 | 0.00 | 66 | 1019.6 |
| 20260509214018 | 54 | 304 | 2.0 | 4.0 | 0.00 | 0.00 | 0.00 | 67 | 1019.6 |
| 20260509213516 | 54 | 170 | 0.0 | 4.0 | 0.00 | 0.00 | 0.00 | 67 | 1019.6 |
| 20260509213017 | 54 | 170 | 1.0 | 4.0 | 0.00 | 0.00 | 0.00 | 66 | 1019.6 |
| 20260509212514 | 54 | 176 | 1.0 | 4.0 | 0.00 | 0.00 | 0.00 | 66 | 1019.6 |
| 20260509212014 | 54 | 176 | 0.0 | 4.0 | 0.00 | 0.00 | 0.00 | 66 | 1019.6 |
| 20260509211516 | 54 | 139 | 0.0 | 2.0 | 0.00 | 0.00 | 0.00 | 66 | 1019.7 |
| 20260509211014 | 54 | 139 | 0.0 | 4.0 | 0.00 | 0.00 | 0.00 | 66 | 1019.8 |
| 20260509210513 | 55 | 139 | 1.0 | 4.0 | 0.00 | 0.00 | 0.00 | 65 | 1019.7 |
| 20260509210014 | 55 | 186 | 0.0 | 5.0 | 0.00 | 0.00 | 0.00 | 65 | 1019.8 |
| 20260509205513 | 55 | 186 | 1.0 | 5.0 | 0.00 | 0.00 | 0.00 | 64 | 1019.7 |
| 20260509205013 | 55 | 207 | 0.0 | 0.0 | 0.00 | 0.00 | 0.00 | 64 | 1019.8 |
| 20260509204514 | 55 | 207 | 0.0 | 1.0 | 0.00 | 0.00 | 0.00 | 63 | 1019.8 |
| 20260509204013 | 56 | 207 | 0.0 | 4.0 | 0.00 | 0.00 | 0.00 | 63 | 1019.7 |
| 20260509203516 | 56 | 253 | 1.0 | 4.0 | 0.00 | 0.00 | 0.00 | 63 | 1019.7 |
| 20260509203023 | 56 | 314 | 2.0 | 4.0 | 0.00 | 0.00 | 0.00 | 63 | 1019.8 |
| 20260509202515 | 56 | 268 | 0.0 | 2.0 | 0.00 | 0.00 | 0.00 | 62 | 1019.8 |
| 20260509202013 | 56 | 268 | 0.0 | 5.0 | 0.00 | 0.00 | 0.00 | 62 | 1019.9 |
| 20260509201513 | 56 | 272 | 0.0 | 5.0 | 0.00 | 0.00 | 0.00 | 62 | 1019.9 |
| 20260509201013 | 56 | 262 | 1.0 | 4.0 | 0.00 | 0.00 | 0.00 | 62 | 1019.9 |
| 20260509200515 | 56 | 251 | 0.0 | 3.0 | 0.00 | 0.00 | 0.00 | 62 | 1019.9 |
| 20260509200012 | 57 | 246 | 0.0 | 5.0 | 0.00 | 0.00 | 0.00 | 61 | 1020.0 |
| 20260509195512 | 57 | 249 | 1.0 | 5.0 | 0.00 | 0.00 | 0.00 | 61 | 1020.0 |
| 20260509195011 | 57 | 217 | 0.0 | 2.0 | 0.00 | 0.00 | 0.00 | 61 | 1020.0 |
| 20260509194511 | 57 | 217 | 1.0 | 3.0 | 0.00 | 0.00 | 0.00 | 60 | 1020.0 |
| 20260509194012 | 57 | 282 | 0.0 | 3.0 | 0.00 | 0.00 | 0.00 | 60 | 1020.0 |
| 20260509193516 | 57 | 282 | 1.0 | 4.0 | 0.00 | 0.00 | 0.00 | 59 | 1020.0 |
| 20260509193011 | 58 | 262 | 2.0 | 4.0 | 0.00 | 0.00 | 0.00 | 59 | 1019.9 |
| 20260509192510 | 58 | 270 | 1.0 | 3.0 | 0.00 | 0.00 | 0.00 | 58 | 1019.9 |
| 20260509192010 | 58 | 185 | 1.0 | 9.0 | 0.00 | 0.00 | 0.00 | 58 | 1019.8 |
| 20260509191510 | 58 | 320 | 3.0 | 9.0 | 0.00 | 0.00 | 0.00 | 58 | 1019.8 |
| 20260509191012 | 58 | 259 | 2.0 | 4.0 | 0.00 | 0.00 | 0.00 | 58 | 1019.7 |
| 20260509190509 | 58 | 299 | 0.0 | 4.0 | 0.00 | 0.00 | 0.00 | 57 | 1019.6 |
| 20260509190009 | 59 | 344 | 2.0 | 4.0 | 0.00 | 0.00 | 0.00 | 57 | 1019.6 |
| 20260509185509 | 59 | 297 | 0.0 | 3.0 | 0.00 | 0.00 | 0.00 | 57 | 1019.7 |
| 20260509185008 | 59 | 260 | 0.0 | 4.0 | 0.00 | 0.00 | 0.00 | 57 | 1019.6 |
| 20260509184509 | 59 | 266 | 0.0 | 4.0 | 0.00 | 0.00 | 0.00 | 56 | 1019.5 |
| 20260509184008 | 59 | 13 | 1.0 | 5.0 | 0.00 | 0.00 | 0.00 | 56 | 1019.5 |
| 20260509183510 | 59 | 220 | 0.0 | 5.0 | 0.00 | 0.00 | 0.00 | 56 | 1019.5 |
| 20260509183008 | 60 | 133 | 2.0 | 5.0 | 0.00 | 0.00 | 0.00 | 55 | 1019.5 |
| 20260509182507 | 60 | 304 | 0.0 | 5.0 | 0.00 | 0.00 | 0.00 | 55 | 1019.4 |
| 20260509182013 | 60 | 319 | 0.0 | 6.0 | 0.00 | 0.00 | 0.00 | 55 | 1019.4 |
| 20260509181507 | 60 | 318 | 3.0 | 8.0 | 0.00 | 0.00 | 0.00 | 54 | 1019.4 |
| 20260509181007 | 60 | 304 | 3.0 | 9.0 | 0.00 | 0.00 | 0.00 | 54 | 1019.3 |
| 20260509180511 | 60 | 268 | 4.0 | 9.0 | 0.00 | 0.00 | 0.00 | 54 | 1019.3 |
| 20260509180007 | 61 | 48 | 1.0 | 9.0 | 0.00 | 0.00 | 0.00 | 54 | 1019.3 |
| 20260509175506 | 61 | 3 | 1.0 | 7.0 | 0.00 | 0.00 | 0.00 | 54 | 1019.3 |
| 20260509175006 | 61 | 256 | 2.0 | 7.0 | 0.00 | 0.00 | 0.00 | 54 | 1019.3 |
| 20260509174514 | 61 | 323 | 1.0 | 7.0 | 0.00 | 0.00 | 0.00 | 54 | 1019.2 |
| 20260509174007 | 61 | 333 | 3.0 | 7.0 | 0.00 | 0.00 | 0.00 | 53 | 1019.3 |
| 20260509173504 | 61 | 93 | 2.0 | 10.0 | 0.00 | 0.00 | 0.00 | 54 | 1019.2 |
| 20260509173005 | 62 | 9 | 2.0 | 10.0 | 0.00 | 0.00 | 0.00 | 53 | 1019.1 |
| 20260509172507 | 62 | 209 | 2.0 | 8.0 | 0.00 | 0.00 | 0.00 | 53 | 1019.1 |
| 20260509172007 | 62 | 103 | 1.0 | 6.0 | 0.00 | 0.00 | 0.00 | 53 | 1019.0 |
| 20260509171505 | 62 | 309 | 2.0 | 6.0 | 0.00 | 0.00 | 0.00 | 54 | 1019.0 |
| 20260509171003 | 62 | 314 | 1.0 | 5.0 | 0.00 | 0.00 | 0.00 | 54 | 1019.0 |
| 20260509170503 | 62 | 286 | 0.0 | 3.0 | 0.00 | 0.00 | 0.00 | 56 | 1019.1 |
| 20260509170003 | 62 | 309 | 0.0 | 0.0 | 0.00 | 0.00 | 0.00 | 56 | 1019.1 |
| 20260509165504 | 62 | 309 | 0.0 | 0.0 | 0.00 | 0.00 | 0.00 | 56 | 1019.0 |
| 20260509165003 | 62 | 309 | 0.0 | 0.0 | 0.00 | 0.00 | 0.00 | 57 | 1019.0 |
| 20260509164503 | 63 | 309 | 0.0 | 2.0 | 0.00 | 0.00 | 0.00 | 57 | 1019.0 |
| 20260509164001 | 63 | 309 | 0.0 | 2.0 | 0.00 | 0.00 | 0.00 | 56 | 1019.0 |
| 20260509163501 | 63 | 309 | 0.0 | 3.0 | 0.00 | 0.00 | 0.00 | 56 | 1019.0 |
| 20260509163001 | 63 | 309 | 0.0 | 3.0 | 0.00 | 0.00 | 0.00 | 54 | 1019.0 |
| 20260509162504 | 63 | 309 | 1.0 | 3.0 | 0.00 | 0.00 | 0.00 | 55 | 1019.1 |
| 20260509162101 | 63 | 328 | 0.0 | 2.0 | 0.00 | 0.00 | 0.00 | 55 | 1019.1 |
| 20260509161604 | 63 | 212 | 0.0 | 3.0 | 0.00 | 0.00 | 0.00 | 54 | 1019.2 |
| 20260509161059 | 63 | 212 | 0.0 | 3.0 | 0.00 | 0.00 | 0.00 | 55 | 1019.2 |
| 20260509160600 | 64 | 156 | 0.0 | 4.0 | 0.00 | 0.00 | 0.00 | 53 | 1019.2 |
| 20260509160059 | 64 | 153 | 0.0 | 4.0 | 0.00 | 0.00 | 0.00 | 53 | 1019.3 |
| 20260509155559 | 64 | 274 | 1.0 | 5.0 | 0.00 | 0.00 | 0.00 | 52 | 1019.3 |
| 20260509155059 | 64 | 304 | 2.0 | 5.0 | 0.00 | 0.00 | 0.00 | 53 | 1019.2 |
| 20260509154607 | 64 | 137 | 0.0 | 4.0 | 0.00 | 0.00 | 0.00 | 53 | 1019.2 |
| 20260509154058 | 64 | 297 | 1.0 | 4.0 | 0.00 | 0.00 | 0.00 | 55 | 1019.3 |
| 20260509153557 | 64 | 297 | 1.0 | 6.0 | 0.00 | 0.00 | 0.00 | 54 | 1019.3 |
| 20260509153058 | 64 | 291 | 4.0 | 6.0 | 0.00 | 0.00 | 0.00 | 53 | 1019.4 |
| 20260509152556 | 65 | 269 | 3.0 | 6.0 | 0.00 | 0.00 | 0.00 | 55 | 1019.5 |
| 20260509152056 | 64 | 304 | 2.0 | 8.0 | 0.00 | 0.00 | 0.00 | 55 | 1019.5 |
| 20260509151655 | 64 | 304 | 2.0 | 8.0 | 0.00 | 0.00 | 0.00 | 55 | 1019.5 |
| 20260509151054 | 64 | 324 | 3.0 | 10.0 | 0.00 | 0.00 | 0.00 | 55 | 1019.5 |
| 20260509150554 | 64 | 324 | 5.0 | 10.0 | 0.00 | 0.00 | 0.00 | 59 | 1019.5 |
| 20260509145554 | 64 | 283 | 6.0 | 11.0 | 0.00 | 0.00 | 0.00 | 57 | 1019.6 |
| 20260509145056 | 64 | 314 | 4.0 | 10.0 | 0.00 | 0.00 | 0.00 | 58 | 1019.6 |
| 20260509144556 | 64 | 294 | 5.0 | 11.0 | 0.00 | 0.00 | 0.00 | 59 | 1019.6 |
| 20260509144052 | 64 | 299 | 6.0 | 11.0 | 0.00 | 0.00 | 0.00 | 58 | 1019.6 |
| 20260509143552 | 65 | 309 | 5.0 | 11.0 | 0.00 | 0.00 | 0.00 | 59 | 1019.6 |
| 20260509143058 | 65 | 304 | 6.0 | 9.0 | 0.00 | 0.00 | 0.00 | 57 | 1019.6 |
| 20260509142551 | 65 | 299 | 6.0 | 10.0 | 0.00 | 0.00 | 0.00 | 58 | 1019.7 |
| 20260509142051 | 65 | 299 | 5.0 | 10.0 | 0.00 | 0.00 | 0.00 | 58 | 1019.7 |
| 20260509141558 | 65 | 281 | 4.0 | 8.0 | 0.00 | 0.00 | 0.00 | 59 | 1019.8 |
| 20260509141051 | 64 | 314 | 4.0 | 10.0 | 0.00 | 0.00 | 0.00 | 60 | 1019.8 |
| 20260509140552 | 64 | 267 | 5.0 | 10.0 | 0.00 | 0.00 | 0.00 | 61 | 1019.9 |
| 20260509140100 | 63 | 297 | 5.0 | 12.0 | 0.00 | 0.00 | 0.00 | 61 | 1020.0 |
| 20260509135551 | 63 | 278 | 8.0 | 12.0 | 0.00 | 0.00 | 0.00 | 60 | 1019.9 |
| 20260509135052 | 63 | 282 | 7.0 | 12.0 | 0.00 | 0.00 | 0.00 | 61 | 1019.9 |
| 20260509134551 | 64 | 309 | 5.0 | 11.0 | 0.00 | 0.00 | 0.00 | 60 | 1019.8 |
| 20260509134049 | 64 | 318 | 5.0 | 10.0 | 0.00 | 0.00 | 0.00 | 58 | 1019.9 |
| 20260509133549 | 65 | 278 | 3.0 | 11.0 | 0.00 | 0.00 | 0.00 | 57 | 1019.9 |
| 20260509133049 | 65 | 290 | 4.0 | 12.0 | 0.00 | 0.00 | 0.00 | 55 | 1019.8 |
| 20260509132554 | 65 | 238 | 5.0 | 11.0 | 0.00 | 0.00 | 0.00 | 54 | 1019.8 |
| 20260509132049 | 66 | 287 | 4.0 | 10.0 | 0.00 | 0.00 | 0.00 | 53 | 1019.7 |
| 20260509131649 | 66 | 309 | 2.0 | 9.0 | 0.00 | 0.00 | 0.00 | 52 | 1019.7 |
| 20260509131047 | 66 | 304 | 6.0 | 10.0 | 0.00 | 0.00 | 0.00 | 50 | 1019.7 |
| 20260509130546 | 66 | 287 | 5.0 | 10.0 | 0.00 | 0.00 | 0.00 | 54 | 1019.8 |
| 20260509130047 | 65 | 281 | 4.0 | 11.0 | 0.00 | 0.00 | 0.00 | 56 | 1019.8 |
| 20260509125547 | 65 | 309 | 4.0 | 11.0 | 0.00 | 0.00 | 0.00 | 56 | 1019.9 |
| 20260509125046 | 65 | 314 | 5.0 | 10.0 | 0.00 | 0.00 | 0.00 | 57 | 1019.9 |
| 20260509124546 | 65 | 278 | 4.0 | 10.0 | 0.00 | 0.00 | 0.00 | 56 | 1019.9 |
| 20260509124046 | 65 | 289 | 4.0 | 10.0 | 0.00 | 0.00 | 0.00 | 53 | 1019.9 |
| 20260509123546 | 64 | 304 | 5.0 | 10.0 | 0.00 | 0.00 | 0.00 | 53 | 1019.8 |
| 20260509123059 | 64 | 322 | 4.0 | 11.0 | 0.00 | 0.00 | 0.00 | 55 | 1019.8 |
| 20260509122545 | 64 | 270 | 5.0 | 12.0 | 0.00 | 0.00 | 0.00 | 54 | 1019.7 |
| 20260509122045 | 65 | 274 | 6.0 | 12.0 | 0.00 | 0.00 | 0.00 | 54 | 1019.6 |
| 20260509121545 | 65 | 295 | 6.0 | 10.0 | 0.00 | 0.00 | 0.00 | 54 | 1019.7 |
| 20260509121048 | 65 | 304 | 5.0 | 11.0 | 0.00 | 0.00 | 0.00 | 54 | 1019.7 |
| 20260509120544 | 64 | 283 | 6.0 | 11.0 | 0.00 | 0.00 | 0.00 | 54 | 1019.8 |
| 20260509120045 | 63 | 298 | 7.0 | 11.0 | 0.00 | 0.00 | 0.00 | 53 | 1019.7 |
| 20260509115543 | 63 | 309 | 5.0 | 14.0 | 0.00 | 0.00 | 0.00 | 55 | 1019.8 |
| 20260509115042 | 63 | 270 | 5.0 | 15.0 | 0.00 | 0.00 | 0.00 | 55 | 1019.8 |
| 20260509114543 | 64 | 324 | 6.0 | 14.0 | 0.00 | 0.00 | 0.00 | 54 | 1019.8 |
| 20260509114042 | 64 | 289 | 7.0 | 14.0 | 0.00 | 0.00 | 0.00 | 55 | 1019.8 |
| 20260509113544 | 64 | 314 | 9.0 | 14.0 | 0.00 | 0.00 | 0.00 | 56 | 1019.8 |
| 20260509113041 | 64 | 304 | 8.0 | 15.0 | 0.00 | 0.00 | 0.00 | 53 | 1019.9 |
| 20260509112540 | 65 | 304 | 9.0 | 15.0 | 0.00 | 0.00 | 0.00 | 54 | 1019.9 |
| 20260509112040 | 65 | 291 | 8.0 | 13.0 | 0.00 | 0.00 | 0.00 | 54 | 1019.9 |
| 20260509111540 | 66 | 287 | 8.0 | 13.0 | 0.00 | 0.00 | 0.00 | 54 | 1019.9 |
| 20260509111039 | 66 | 299 | 8.0 | 14.0 | 0.00 | 0.00 | 0.00 | 56 | 1020.0 |
| 20260509110538 | 66 | 274 | 8.0 | 14.0 | 0.00 | 0.00 | 0.00 | 53 | 1020.1 |
| 20260509110037 | 65 | 304 | 5.0 | 14.0 | 0.00 | 0.00 | 0.00 | 57 | 1020.2 |
| 20260509105535 | 65 | 343 | 5.0 | 11.0 | 0.00 | 0.00 | 0.00 | 57 | 1020.3 |
| 20260509105035 | 65 | 295 | 6.0 | 14.0 | 0.00 | 0.00 | 0.00 | 57 | 1020.5 |
| 20260509104536 | 65 | 318 | 8.0 | 14.0 | 0.00 | 0.00 | 0.00 | 57 | 1020.5 |
| 20260509104035 | 65 | 314 | 5.0 | 10.0 | 0.00 | 0.00 | 0.00 | 60 | 1020.6 |
| 20260509103533 | 65 | 326 | 5.0 | 10.0 | 0.00 | 0.00 | 0.00 | 60 | 1020.7 |
| 20260509103036 | 65 | 289 | 5.0 | 10.0 | 0.00 | 0.00 | 0.00 | 61 | 1020.7 |
| 20260509102532 | 65 | 309 | 3.0 | 9.0 | 0.00 | 0.00 | 0.00 | 60 | 1020.8 |
| 20260509102032 | 64 | 322 | 4.0 | 7.0 | 0.00 | 0.00 | 0.00 | 60 | 1020.8 |
| 20260509101533 | 64 | 324 | 2.0 | 8.0 | 0.00 | 0.00 | 0.00 | 59 | 1021.0 |
| 20260509101030 | 64 | 300 | 3.0 | 10.0 | 0.00 | 0.00 | 0.00 | 58 | 1021.0 |
| 20260509100530 | 64 | 320 | 3.0 | 9.0 | 0.00 | 0.00 | 0.00 | 62 | 1021.1 |
| 20260509100030 | 64 | 289 | 4.0 | 12.0 | 0.00 | 0.00 | 0.00 | 59 | 1021.2 |
| 20260509095530 | 64 | 299 | 7.0 | 12.0 | 0.00 | 0.00 | 0.00 | 60 | 1021.1 |
| 20260509095028 | 64 | 304 | 1.0 | 4.0 | 0.00 | 0.00 | 0.00 | 57 | 1021.2 |
| 20260509094527 | 64 | 275 | 1.0 | 4.0 | 0.00 | 0.00 | 0.00 | 59 | 1021.3 |
| 20260509094027 | 63 | 12 | 0.0 | 6.0 | 0.00 | 0.00 | 0.00 | 57 | 1021.4 |
| 20260509093526 | 64 | 113 | 1.0 | 2.0 | 0.00 | 0.00 | 0.00 | 61 | 1021.5 |
| 20260509093037 | 63 | 113 | 0.0 | 5.0 | 0.00 | 0.00 | 0.00 | 59 | 1021.5 |
| 20260509092525 | 63 | 130 | 2.0 | 4.0 | 0.00 | 0.00 | 0.00 | 60 | 1021.5 |
| 20260509092029 | 63 | 322 | 1.0 | 4.0 | 0.00 | 0.00 | 0.00 | 60 | 1021.6 |